When you browse on this site, cookies collect data to enhance your experience and personalize the content and advertising you see.
Visit our Privacy Policy to learn more. By continuing to use the site, you agree to this use of cookies and data.
  • In Slovakia
  • List of Countries
  • For 7 days
  • Water Temperature
  • Weather Map
  • Weather Widgets
  • user-avatar
    Login

    Hourly Weather Biskira

    Today, 16 September, Monday

    Time Temperature Precipitation Wind Pressure Humidity
    00:00 +31°C° 0 mm 1 mps 756 mmHg 45%
    01:00 +30°C° 0 mm 1 mps 755 mmHg 46%
    02:00 +30°C° 0 mm 1 mps 755 mmHg 47%
    03:00 +30°C° 0 mm 1 mps 754 mmHg 48%
    04:00 +30°C° 0 mm 1 mps 755 mmHg 48%
    05:00 +29°C° 0 mm 1 mps 755 mmHg 49%
    06:00 +30°C° 0 mm 1 mps 755 mmHg 49%
    07:00 +30°C° 0 mm 1 mps 755 mmHg 46%
    08:00 +31°C° 0 mm 2 mps 755 mmHg 42%
    09:00 +32°C° 0 mm 2 mps 755 mmHg 38%
    10:00 +34°C° 0.1 mm 2 mps 755 mmHg 36%
    11:00 +35°C° 0.1 mm 3 mps 755 mmHg 34%
    12:00 +36°C° 0.1 mm 3 mps 755 mmHg 32%
    13:00 +36°C° 0 mm 2 mps 754 mmHg 31%
    14:00 +37°C° 0 mm 2 mps 754 mmHg 30%
    15:00 +36°C° 0 mm 1 mps 753 mmHg 29%
    16:00 +36°C° 0 mm 1 mps 753 mmHg 30%
    17:00 +37°C° 0 mm 2 mps 753 mmHg 32%
    18:00 +36°C° 0 mm 2 mps 753 mmHg 33%
    19:00 +36°C° 0 mm 2 mps 753 mmHg 35%
    20:00 +34°C° 0 mm 1 mps 753 mmHg 38%
    21:00 +33°C° 0 mm 1 mps 754 mmHg 40%
    22:00 +31°C° 0 mm 0 mps 754 mmHg 41%
    23:00 +30°C° 0 mm 0 mps 754 mmHg 43%

    Tomorrow, 17 September, Tuesday

    Time Temperature Precipitation Wind Pressure Humidity
    00:00 +30°C° 0 mm 0 mps 754 mmHg 44%
    01:00 +30°C° 0 mm 0 mps 753 mmHg 45%
    02:00 +29°C° 0 mm 0 mps 753 mmHg 45%
    03:00 +31°C° 0 mm 1 mps 752 mmHg 46%
    04:00 +29°C° 0 mm 0 mps 753 mmHg 47%
    05:00 +29°C° 0 mm 0 mps 753 mmHg 47%
    06:00 +28°C° 0 mm 0 mps 753 mmHg 48%
    07:00 +32°C° 0 mm 1 mps 753 mmHg 43%
    08:00 +33°C° 0 mm 1 mps 753 mmHg 38%
    09:00 +35°C° 0 mm 2 mps 753 mmHg 33%
    10:00 +36°C° 0 mm 2 mps 753 mmHg 31%
    11:00 +37°C° 0 mm 2 mps 753 mmHg 28%
    12:00 +38°C° 0 mm 3 mps 752 mmHg 26%
    13:00 +39°C° 0 mm 2 mps 752 mmHg 25%
    14:00 +39°C° 0 mm 2 mps 751 mmHg 24%
    15:00 +40°C° 0 mm 2 mps 751 mmHg 23%
    16:00 +39°C° 0 mm 3 mps 751 mmHg 24%
    17:00 +38°C° 0 mm 4 mps 751 mmHg 26%
    18:00 +37°C° 0 mm 4 mps 751 mmHg 28%
    19:00 +36°C° 0 mm 6 mps 752 mmHg 31%
    20:00 +35°C° 0 mm 8 mps 753 mmHg 33%
    21:00 +34°C° 0 mm 10 mps 753 mmHg 36%
    22:00 +33°C° 0 mm 10 mps 753 mmHg 39%
    23:00 +32°C° 0 mm 9 mps 753 mmHg 42%

    Day after tomorrow, 18 September, Wednesday

    Time Temperature Precipitation Wind Pressure Humidity
    00:00 +31°C° 0 mm 8 mps 753 mmHg 45%
    01:00 +32°C° 0 mm 6 mps 753 mmHg 43%
    02:00 +32°C° 0 mm 4 mps 752 mmHg 41%
    03:00 +31°C° 0 mm 2 mps 752 mmHg 39%
    04:00 +31°C° 0 mm 3 mps 752 mmHg 40%
    05:00 +31°C° 0 mm 3 mps 752 mmHg 40%
    06:00 +31°C° 0 mm 3 mps 752 mmHg 41%
    07:00 +33°C° 0 mm 3 mps 752 mmHg 36%
    08:00 +35°C° 0 mm 4 mps 752 mmHg 31%
    09:00 +37°C° 0 mm 4 mps 752 mmHg 27%
    10:00 +38°C° 0 mm 4 mps 752 mmHg 25%
    11:00 +38°C° 0 mm 4 mps 752 mmHg 24%
    12:00 +39°C° 0 mm 3 mps 752 mmHg 23%
    13:00 +39°C° 0 mm 3 mps 752 mmHg 23%
    14:00 +40°C° 0 mm 3 mps 751 mmHg 22%
    15:00 +40°C° 0 mm 3 mps 751 mmHg 22%
    16:00 +36°C° 0.9 mm 6 mps 751 mmHg 33%
    17:00 +33°C° 0.9 mm 9 mps 752 mmHg 44%
    18:00 +28°C° 0.9 mm 12 mps 752 mmHg 56%
    19:00 +29°C° 0.4 mm 9 mps 753 mmHg 52%
    20:00 +30°C° 0.4 mm 6 mps 753 mmHg 48%
    21:00 +31°C° 0.4 mm 3 mps 754 mmHg 43%
    22:00 +31°C° 0.1 mm 3 mps 754 mmHg 44%
    23:00 +30°C° 0.1 mm 2 mps 753 mmHg 45%

    19 September, Thursday

    Time Temperature Precipitation Wind Pressure Humidity
    00:00 +30°C° 0.1 mm 2 mps 753 mmHg 46%
    01:00 +30°C° 0 mm 2 mps 753 mmHg 45%
    02:00 +30°C° 0 mm 2 mps 752 mmHg 45%
    03:00 +30°C° 0 mm 2 mps 752 mmHg 45%
    04:00 +30°C° 0 mm 2 mps 752 mmHg 44%
    05:00 +30°C° 0 mm 3 mps 752 mmHg 44%
    06:00 +30°C° 0 mm 3 mps 753 mmHg 43%
    07:00 +32°C° 0 mm 2 mps 753 mmHg 39%
    08:00 +34°C° 0 mm 2 mps 753 mmHg 35%
    09:00 +34°C° 0 mm 1 mps 753 mmHg 31%
    10:00 +35°C° 0 mm 1 mps 753 mmHg 30%
    11:00 +37°C° 0 mm 2 mps 753 mmHg 28%
    12:00 +38°C° 0 mm 2 mps 753 mmHg 26%
    13:00 +38°C° 0 mm 2 mps 752 mmHg 25%
    14:00 +38°C° 0 mm 2 mps 752 mmHg 23%
    15:00 +39°C° 0 mm 2 mps 752 mmHg 22%
    16:00 +38°C° 0 mm 2 mps 752 mmHg 24%
    17:00 +37°C° 0 mm 1 mps 752 mmHg 26%
    18:00 +36°C° 0 mm 1 mps 752 mmHg 28%
    19:00 +36°C° 0 mm 1 mps 752 mmHg 29%
    20:00 +35°C° 0 mm 1 mps 753 mmHg 30%
    21:00 +35°C° 0 mm 1 mps 753 mmHg 30%
    22:00 +34°C° 0 mm 1 mps 753 mmHg 31%
    23:00 +34°C° 0 mm 1 mps 753 mmHg 32%

    20 September, Friday

    Time Temperature Precipitation Wind Pressure Humidity
    00:00 +33°C° 0 mm 1 mps 753 mmHg 33%
    01:00 +33°C° 0 mm 1 mps 752 mmHg 33%
    02:00 +32°C° 0 mm 2 mps 752 mmHg 33%
    03:00 +32°C° 0 mm 2 mps 752 mmHg 33%
    04:00 +32°C° 0 mm 2 mps 752 mmHg 34%
    05:00 +31°C° 0 mm 2 mps 752 mmHg 36%
    06:00 +31°C° 0 mm 2 mps 752 mmHg 37%
    07:00 +34°C° 0 mm 2 mps 752 mmHg 34%
    08:00 +35°C° 0 mm 3 mps 753 mmHg 32%
    09:00 +36°C° 0 mm 4 mps 753 mmHg 29%
    10:00 +37°C° 0 mm 4 mps 753 mmHg 28%
    11:00 +38°C° 0 mm 4 mps 752 mmHg 26%
    12:00 +40°C° 0 mm 4 mps 752 mmHg 24%
    13:00 +39°C° 0 mm 3 mps 752 mmHg 22%
    14:00 +39°C° 0 mm 2 mps 752 mmHg 20%
    15:00 +40°C° 0 mm 1 mps 751 mmHg 18%
    16:00 +39°C° 0 mm 1 mps 751 mmHg 20%
    17:00 +37°C° 0 mm 1 mps 751 mmHg 22%
    18:00 +37°C° 0 mm 1 mps 752 mmHg 24%
    19:00 +37°C° 0 mm 2 mps 752 mmHg 26%
    20:00 +36°C° 0 mm 2 mps 753 mmHg 27%
    21:00 +36°C° 0 mm 2 mps 753 mmHg 28%
    22:00 +35°C° 0 mm 3 mps 753 mmHg 30%
    23:00 +35°C° 0 mm 4 mps 753 mmHg 31%

    21 September, Saturday

    Time Temperature Precipitation Wind Pressure Humidity
    00:00 +34°C° 0 mm 5 mps 753 mmHg 32%
    01:00 +33°C° 0 mm 5 mps 753 mmHg 38%
    02:00 +32°C° 0 mm 4 mps 753 mmHg 44%
    03:00 +32°C° 0 mm 4 mps 752 mmHg 51%
    04:00 +30°C° 0 mm 3 mps 753 mmHg 54%
    05:00 +30°C° 0 mm 3 mps 753 mmHg 57%
    06:00 +30°C° 0 mm 3 mps 753 mmHg 60%
    07:00 +32°C° 0 mm 4 mps 753 mmHg 54%
    08:00 +33°C° 0 mm 5 mps 754 mmHg 49%
    09:00 +34°C° 0 mm 6 mps 754 mmHg 43%
    10:00 +36°C° 0 mm 7 mps 754 mmHg 39%
    11:00 +38°C° 0 mm 7 mps 754 mmHg 35%
    12:00 +39°C° 0 mm 7 mps 754 mmHg 32%
    13:00 +39°C° 0 mm 7 mps 753 mmHg 30%
    14:00 +40°C° 0 mm 7 mps 753 mmHg 29%
    15:00 +40°C° 0 mm 6 mps 752 mmHg 27%
    16:00 +39°C° 0 mm 6 mps 753 mmHg 29%
    17:00 +39°C° 0 mm 6 mps 753 mmHg 31%
    18:00 +37°C° 0 mm 5 mps 753 mmHg 33%
    19:00 +36°C° 0 mm 6 mps 753 mmHg 34%
    20:00 +36°C° 0 mm 6 mps 754 mmHg 34%
    21:00 +36°C° 0 mm 6 mps 754 mmHg 35%
    22:00 +35°C° 0 mm 6 mps 754 mmHg 37%
    23:00 +34°C° 0 mm 6 mps 754 mmHg 39%
    Show more